Regional Weather Roundup
Issued by NWS Northern Indiana

Home | Current Version | Previous Version | Text Only | Print | Product List | Glossary Off
Versions: 1 2 3 4 5 6 7 8 9 10 11 12 13 14 15 16 17 18 19 20 21 22 23 24 25 26 27 28 29 30 31 32 33 34 35 36 37 38 39 40 41 42 43 44 45 46 47 48 49 50

000
ASUS43 KIWX 231000
RWRIWX

KIWX WEATHER ROUNDUP
NATIONAL WEATHER SERVICE NORTHERN INDIANA
600 AM EDT THU MAR 23 2017

NOTE: "FAIR" INDICATES FEW OR NO CLOUDS BELOW 12,000 FEET WITH NO
SIGNIFICANT WEATHER AND/OR OBSTRUCTIONS TO VISIBILITY.

* THESE STATIONS ARE NOT UNDER NWS QUALITY CONTROL. THEY ALSO MAY NOT
  REPORT WEATHER SUCH AS PRECIPITATION OR FOG.

INZ001>027-231100-
NORTHERN INDIANA

CITY           SKY/WX    TMP DP  RH WIND       PRES   REMARKS
GARY*          PTCLDY    32  18  55 SE9       30.44S WCI  24
KNOX*          PTCLDY    27   5  39 SE6       30.44S WCI  20
SOUTH BEND     CLOUDY    25  17  72 E9        30.45F WCI  15
GOSHEN         PTCLDY    25  14  63 SE7       30.46F WCI  17
MONTICELLO*    PTCLDY    28  20  69 E8        30.42S WCI  20
ANGOLA*        CLEAR     21  12  68 SE7       30.47S WCI  13
FORT WAYNE     CLOUDY    24  16  71 E9        30.48S WCI  14
PERU/GRISSOM   CLOUDY    27  18  68 E9        30.42F WCI  18

$$
INZ028>050-231100-
CENTRAL INDIANA

CITY           SKY/WX    TMP DP  RH WIND       PRES   REMARKS
LAFAYETTE      CLOUDY    28  22  78 E9        30.42F WCI  19
KOKOMO*        CLOUDY    26  20  77 E10       30.44F WCI  16
MUNCIE*        CLOUDY    27  20  75 E9        30.44S WCI  18
INDIANAPOLIS   CLOUDY    29  19  66 E12       30.41F WCI  19

$$
MIZ043>046-050>051-056>058-064>065-071>073-077>080-231100-
SOUTHWEST LOWER MICHIGAN

CITY           SKY/WX    TMP DP  RH WIND       PRES   REMARKS
BATTLE CREEK   CLEAR     24  15  68 S7        30.48R WCI  16
BENTON HARBOR  CLOUDY    26  16  65 SE6       30.46S WCI  19
COLDWATER*     CLEAR     24  15  70 SE5       30.48S WCI  18
HILLSDALE*     CLEAR     21  14  73 SE6       30.47R WCI  14
HOLLAND        CLOUDY    25  16  68 SE8       30.47S WCI  16
GRAND RAPIDS   CLOUDY    23  14  68 S7        30.48R WCI  15
KALAMAZOO      CLOUDY    26  14  60 SE6       30.48S WCI  19
STURGIS*       CLOUDY    24  16  72 SE7       30.47S WCI  15
THREE RIVERS*  FAIR      25  15  65 SE7       30.48S WCI  17

$$
OHZ001>008-015>018-024>025-231100-
NORTHWEST OHIO

CITY           SKY/WX    TMP DP  RH WIND       PRES   REMARKS
DEFIANCE       CLEAR     19  13  77 E5        30.51F WCI  12
FINDLAY        CLOUDY    22  14  71 E6        30.50S WCI  14
TOLEDO EXPRESS PTCLDY    20  14  77 CALM      30.51F
TOLEDO METCALF CLOUDY    21  15  78 SE5       30.53F WCI  15
LIMA           CLOUDY    21  16  81 E7        30.48F WCI  12

$$
AND FOR LAKE MICHIGAN COASTAL AND OPEN LAKE BUOY OBSERVATIONS

STATION/POSITION TEMP    WIND        PRES    VSBY  WAVE
                 AIR SEA DIR/SP/G                  HT/PER
                 (F)     (DEG/KT/KT) (MB)    (MI)  (FT/S)
CALUMET HARBOR    31     140/  7/  8 1029.4F
MICHIGAN CITY     29     130/ 11/ 14   N/A
BURNS HARBOR      31     150/ 10/ 17 1030.8S
SAINT JOSEPH      27      90/  1/  3 1031.5

$$
&&



USA.gov is the U.S. government's official web portal to all federal, state and local government web resources and services.